Location: Newark
(40.1631°N, 15.6720°E)
Time: 02:50:25
(UTC+00:00)

ISS - Visible Passes

Search period start: 14 December 2019 00:00
Search period end: 24 December 2019 00:00
Orbit: 411 x 421 km, 51.6° (Epoch: 14 December)

Date Brightness Start Highest point End Pass type
(mag) Time Alt. Az. Time Alt. Az. Time Alt. Az.
19 Dec -0.2 05:21:02 10° SSE 05:22:23 12° SE 05:23:45 10° ESE visible
21 Dec -1.9 05:18:39 10° SSW 05:21:41 34° SE 05:24:44 10° ENE visible
22 Dec -1.0 04:30:48 10° S 04:33:15 19° SE 04:35:44 10° E visible
23 Dec -0.5 03:43:56 10° SE 03:44:53 11° SE 03:45:49 10° ESE visible
23 Dec -3.9 05:17:50 10° WSW 05:21:09 78° NW 05:24:28 10° NE visible
